Time,TemperatureF,DewpointF,PressureIn,WindDirection,WindDirectionDegrees,WindSpeedMPH,WindSpeedGustMPH,Humidity,HourlyPrecipIn,Conditions,Clouds,dailyrainin,SolarRadiationWatts/m^2,SoftwareType,DateUTC
2013-01-08 01:00:00,29.0,27.0,29.58,SSW,209,13.0,-999.0,95,-99.99,,,-99.99,0.030000,,2013-01-08 08:00:00,
2013-01-08 01:53:00,29.0,27.0,29.58,SSW,209,13.0,-999.0,95,-99.99,,,-99.99,0.030000,,2013-01-08 08:53:00,
2013-01-08 02:00:00,29.0,28.0,29.56,SW,217,15.0,-999.0,96,-99.99,,,-99.99,0.030000,,2013-01-08 09:00:00,
2013-01-08 02:52:00,29.0,28.0,29.56,SW,217,15.0,-999.0,96,-99.99,,,-99.99,0.030000,,2013-01-08 09:52:00,
2013-01-08 03:00:00,30.0,29.0,29.55,SW,222,17.0,-999.0,96,-99.99,,,-99.99,0.040000,,2013-01-08 10:00:00,
2013-01-08 03:52:00,30.0,29.0,29.55,SW,222,17.0,-999.0,96,-99.99,,,-99.99,0.040000,,2013-01-08 10:52:00,
2013-01-08 04:00:00,32.0,30.0,29.55,SW,233,17.0,-999.0,93,-99.99,,,-99.99,0.030000,,2013-01-08 11:00:00,
2013-01-08 04:53:00,32.0,30.0,29.55,SW,233,17.0,-999.0,93,-99.99,,,-99.99,0.030000,,2013-01-08 11:53:00,
2013-01-08 05:00:00,37.0,30.0,29.57,WSW,258,17.0,-999.0,77,-99.99,,,-99.99,0.030000,,2013-01-08 12:00:00,
2013-01-08 05:53:00,37.0,30.0,29.57,WSW,258,17.0,-999.0,77,-99.99,,,-99.99,0.030000,,2013-01-08 12:53:00,
2013-01-08 06:00:00,36.0,29.0,29.60,West,269,17.0,-999.0,75,-99.99,,,-99.99,0.040000,,2013-01-08 13:00:00,
2013-01-08 06:53:00,36.0,29.0,29.60,West,269,17.0,-999.0,75,-99.99,,,-99.99,0.040000,,2013-01-08 13:53:00,
2013-01-08 07:00:00,31.0,26.0,29.63,West,278,14.0,-999.0,82,-99.99,,,-99.99,0.040000,,2013-01-08 14:00:00,
2013-01-08 07:53:00,31.0,26.0,29.63,West,278,14.0,-999.0,82,-99.99,,,-99.99,0.040000,,2013-01-08 14:53:00,
2013-01-08 08:00:00,32.0,27.0,29.64,West,265,12.0,-999.0,80,-99.99,,,-99.99,2.590000,,2013-01-08 15:00:00,
2013-01-08 08:53:00,32.0,27.0,29.64,West,265,12.0,-999.0,80,-99.99,,,-99.99,2.590000,,2013-01-08 15:53:00,
2013-01-08 09:00:00,32.0,26.0,29.67,West,269,13.0,-999.0,78,-99.99,,,-99.99,43.320000,,2013-01-08 16:00:00,
2013-01-08 09:53:00,32.0,26.0,29.67,West,269,13.0,-999.0,78,-99.99,,,-99.99,43.320000,,2013-01-08 16:53:00,
2013-01-08 10:00:00,34.0,28.0,29.69,West,272,18.0,-999.0,78,-99.99,,,-99.99,149.000000,,2013-01-08 17:00:00,
2013-01-08 10:54:00,34.0,28.0,29.69,West,272,18.0,-999.0,78,-99.99,,,-99.99,149.000000,,2013-01-08 17:54:00,
2013-01-08 11:00:00,36.0,30.0,29.72,WNW,282,20.0,-999.0,80,-99.99,,,-99.99,243.000000,,2013-01-08 18:00:00,
2013-01-08 11:53:00,36.0,30.0,29.72,WNW,282,20.0,-999.0,80,-99.99,,,-99.99,243.000000,,2013-01-08 18:53:00,
2013-01-08 12:00:00,34.0,31.0,29.73,WNW,291,20.0,-999.0,88,-99.99,,,-99.99,248.699997,,2013-01-08 19:00:00,
2013-01-08 12:53:00,34.0,31.0,29.73,WNW,291,20.0,-999.0,88,-99.99,,,-99.99,248.699997,,2013-01-08 19:53:00,
2013-01-08 13:00:00,32.0,31.0,29.76,WNW,301,17.0,-999.0,94,-99.99,,,-99.99,183.600006,,2013-01-08 20:00:00,
2013-01-08 13:54:00,32.0,31.0,29.76,WNW,301,17.0,-999.0,94,-99.99,,,-99.99,183.600006,,2013-01-08 20:54:00,
2013-01-08 14:00:00,32.0,31.0,29.79,NW,307,17.0,-999.0,96,-99.99,,,-99.99,124.199997,,2013-01-08 21:00:00,
2013-01-08 14:53:00,32.0,31.0,29.79,NW,307,17.0,-999.0,96,-99.99,,,-99.99,124.199997,,2013-01-08 21:53:00,
2013-01-08 15:00:00,32.0,29.0,29.82,NW,311,17.0,-999.0,92,-99.99,,,-99.99,116.099998,,2013-01-08 22:00:00,
2013-01-08 15:53:00,32.0,29.0,29.82,NW,311,17.0,-999.0,92,-99.99,,,-99.99,116.099998,,2013-01-08 22:53:00,
2013-01-08 16:00:00,29.0,27.0,29.85,West,264,14.0,-999.0,92,-99.99,,,-99.99,49.709999,,2013-01-08 23:00:00,
2013-01-08 16:53:00,29.0,27.0,29.85,West,264,14.0,-999.0,92,-99.99,,,-99.99,49.709999,,2013-01-08 23:53:00,
2013-01-08 17:00:00,30.0,28.0,29.86,West,264,22.0,-999.0,92,-99.99,,,-99.99,4.190000,,2013-01-09 00:00:00,
2013-01-08 17:53:00,30.0,28.0,29.86,West,264,22.0,-999.0,92,-99.99,,,-99.99,4.190000,,2013-01-09 00:53:00,
2013-01-08 18:00:00,30.0,26.0,29.87,West,273,19.0,-999.0,84,-99.99,,,-99.99,0.040000,,2013-01-09 01:00:00,
2013-01-08 18:52:00,30.0,26.0,29.87,West,273,19.0,-999.0,84,-99.99,,,-99.99,0.040000,,2013-01-09 01:52:00,
2013-01-08 19:00:00,26.0,20.0,29.89,WNW,282,18.0,-999.0,75,-99.99,,,-99.99,0.050000,,2013-01-09 02:00:00,
2013-01-08 19:53:00,26.0,20.0,29.89,WNW,282,18.0,-999.0,75,-99.99,,,-99.99,0.050000,,2013-01-09 02:53:00,
2013-01-08 20:00:00,25.0,18.0,29.92,WNW,283,15.0,-999.0,75,-99.99,,,-99.99,0.040000,,2013-01-09 03:00:00,
2013-01-08 20:53:00,25.0,18.0,29.92,WNW,283,15.0,-999.0,75,-99.99,,,-99.99,0.040000,,2013-01-09 03:53:00,
2013-01-08 21:00:00,23.0,16.0,29.92,West,277,15.0,-999.0,76,-99.99,,,-99.99,0.030000,,2013-01-09 04:00:00,
2013-01-08 21:52:00,23.0,16.0,29.92,West,277,15.0,-999.0,76,-99.99,,,-99.99,0.030000,,2013-01-09 04:52:00,
2013-01-08 22:00:00,23.0,16.0,29.94,West,260,13.0,-999.0,72,-99.99,,,-99.99,0.050000,,2013-01-09 05:00:00,
2013-01-08 22:53:00,23.0,16.0,29.94,West,260,13.0,-999.0,72,-99.99,,,-99.99,0.050000,,2013-01-09 05:53:00,
2013-01-08 23:00:00,23.0,15.0,29.94,SW,236,13.0,-999.0,70,-99.99,,,-99.99,0.040000,,2013-01-09 06:00:00,
2013-01-08 23:52:00,23.0,15.0,29.94,SW,236,13.0,-999.0,70,-99.99,,,-99.99,0.040000,,2013-01-09 06:52:00,